• In Netherlands
  • List of Countries
  • For 7 days
  • Water Temperature
  • Satellite Maps
  • Weather Map
  • Weather Widgets
  • user-avatar
    Login

    Hourly Weather Buffalo

    Today, 16 July, Monday

    Time Temperature Precipitation Wind Pressure Humidity
    00:00 +24°C° 0 mm 2 mps 745 mmHg 87%
    01:00 +24°C° 0 mm 2 mps 745 mmHg 88%
    02:00 +23°C° 0 mm 2 mps 744 mmHg 89%
    03:00 +23°C° 0 mm 2 mps 744 mmHg 89%
    04:00 +23°C° 0 mm 2 mps 744 mmHg 90%
    05:00 +24°C° 0 mm 2 mps 744 mmHg 88%
    06:00 +25°C° 0 mm 2 mps 744 mmHg 86%
    07:00 +26°C° 0 mm 2 mps 744 mmHg 84%
    08:00 +27°C° 0.1 mm 2 mps 744 mmHg 79%
    09:00 +29°C° 0.1 mm 3 mps 744 mmHg 74%
    10:00 +30°C° 0.1 mm 3 mps 744 mmHg 70%
    11:00 +31°C° 0.3 mm 3 mps 744 mmHg 67%
    12:00 +33°C° 0.3 mm 3 mps 744 mmHg 65%
    13:00 +33°C° 0.3 mm 3 mps 743 mmHg 62%
    14:00 +33°C° 0.5 mm 3 mps 743 mmHg 63%
    15:00 +33°C° 0.5 mm 3 mps 742 mmHg 64%
    16:00 +33°C° 0.5 mm 3 mps 742 mmHg 64%
    17:00 +31°C° 0.3 mm 3 mps 742 mmHg 68%
    18:00 +30°C° 0.3 mm 3 mps 742 mmHg 72%
    19:00 +29°C° 0.3 mm 3 mps 741 mmHg 77%
    20:00 +28°C° 0.4 mm 3 mps 741 mmHg 79%
    21:00 +27°C° 0.4 mm 3 mps 741 mmHg 82%
    22:00 +26°C° 0.4 mm 3 mps 741 mmHg 85%
    23:00 +25°C° 1.2 mm 3 mps 741 mmHg 86%

    Tomorrow, 17 July, Tuesday

    Time Temperature Precipitation Wind Pressure Humidity
    00:00 +25°C° 1.2 mm 3 mps 741 mmHg 88%
    01:00 +24°C° 1.2 mm 3 mps 740 mmHg 90%
    02:00 +24°C° 0.4 mm 3 mps 740 mmHg 90%
    03:00 +22°C° 0.4 mm 3 mps 740 mmHg 89%
    04:00 +22°C° 0.4 mm 3 mps 740 mmHg 89%
    05:00 +22°C° 0 mm 3 mps 741 mmHg 85%
    06:00 +21°C° 0 mm 3 mps 741 mmHg 81%
    07:00 +21°C° 0 mm 3 mps 742 mmHg 77%
    08:00 +22°C° 0 mm 3 mps 742 mmHg 69%
    09:00 +25°C° 0 mm 4 mps 742 mmHg 62%
    10:00 +26°C° 0 mm 4 mps 743 mmHg 54%
    11:00 +26°C° 0 mm 4 mps 743 mmHg 52%
    12:00 +27°C° 0 mm 5 mps 743 mmHg 50%
    13:00 +27°C° 0 mm 5 mps 743 mmHg 48%
    14:00 +27°C° 0 mm 5 mps 743 mmHg 49%
    15:00 +27°C° 0 mm 5 mps 743 mmHg 50%
    16:00 +27°C° 0 mm 5 mps 743 mmHg 51%
    17:00 +26°C° 0 mm 5 mps 743 mmHg 56%
    18:00 +23°C° 0 mm 4 mps 743 mmHg 61%
    19:00 +22°C° 0 mm 4 mps 744 mmHg 65%
    20:00 +21°C° 0 mm 4 mps 744 mmHg 67%
    21:00 +20°C° 0 mm 4 mps 744 mmHg 69%
    22:00 +19°C° 0 mm 3 mps 745 mmHg 70%
    23:00 +18°C° 0 mm 3 mps 745 mmHg 72%

    Day after tomorrow, 18 July, Wednesday

    Time Temperature Precipitation Wind Pressure Humidity
    00:00 +18°C° 0 mm 3 mps 745 mmHg 74%
    01:00 +18°C° 0 mm 3 mps 745 mmHg 76%
    02:00 +18°C° 0 mm 3 mps 745 mmHg 76%
    03:00 +18°C° 0 mm 3 mps 745 mmHg 76%
    04:00 +17°C° 0 mm 3 mps 746 mmHg 76%
    05:00 +18°C° 0 mm 3 mps 746 mmHg 73%
    06:00 +18°C° 0 mm 3 mps 747 mmHg 70%
    07:00 +19°C° 0 mm 3 mps 747 mmHg 68%
    08:00 +20°C° 0 mm 3 mps 747 mmHg 61%
    09:00 +21°C° 0 mm 3 mps 747 mmHg 55%
    10:00 +22°C° 0 mm 3 mps 748 mmHg 49%
    11:00 +24°C° 0 mm 3 mps 747 mmHg 46%
    12:00 +24°C° 0 mm 2 mps 747 mmHg 44%
    13:00 +25°C° 0 mm 2 mps 747 mmHg 41%
    14:00 +25°C° 0 mm 2 mps 747 mmHg 41%
    15:00 +25°C° 0 mm 2 mps 747 mmHg 41%
    16:00 +25°C° 0 mm 2 mps 746 mmHg 42%
    17:00 +24°C° 0 mm 2 mps 746 mmHg 47%
    18:00 +23°C° 0 mm 1 mps 746 mmHg 52%
    19:00 +22°C° 0 mm 1 mps 746 mmHg 57%
    20:00 +20°C° 0 mm 1 mps 747 mmHg 59%
    21:00 +18°C° 0 mm 2 mps 747 mmHg 60%
    22:00 +17°C° 0 mm 2 mps 747 mmHg 62%
    23:00 +17°C° 0 mm 2 mps 747 mmHg 65%

    19 July, Thursday

    Time Temperature Precipitation Wind Pressure Humidity
    00:00 +16°C° 0 mm 2 mps 747 mmHg 67%
    01:00 +16°C° 0 mm 2 mps 747 mmHg 70%
    02:00 +16°C° 0 mm 2 mps 747 mmHg 70%
    03:00 +15°C° 0 mm 2 mps 747 mmHg 71%
    04:00 +15°C° 0 mm 2 mps 747 mmHg 71%
    05:00 +16°C° 0 mm 2 mps 747 mmHg 70%
    06:00 +17°C° 0 mm 2 mps 747 mmHg 69%
    07:00 +18°C° 0 mm 2 mps 748 mmHg 68%
    08:00 +20°C° 0 mm 2 mps 748 mmHg 62%
    09:00 +23°C° 0 mm 2 mps 748 mmHg 57%
    10:00 +25°C° 0 mm 1 mps 748 mmHg 51%
    11:00 +26°C° 0 mm 1 mps 747 mmHg 48%
    12:00 +27°C° 0 mm 1 mps 747 mmHg 45%
    13:00 +28°C° 0 mm 1 mps 747 mmHg 42%
    14:00 +29°C° 0 mm 1 mps 747 mmHg 42%
    15:00 +29°C° 0 mm 1 mps 747 mmHg 43%
    16:00 +29°C° 0 mm 1 mps 746 mmHg 43%
    17:00 +27°C° 0 mm 2 mps 746 mmHg 50%
    18:00 +26°C° 0 mm 2 mps 746 mmHg 56%
    19:00 +25°C° 0 mm 3 mps 746 mmHg 63%
    20:00 +22°C° 0 mm 3 mps 746 mmHg 66%
    21:00 +21°C° 0 mm 3 mps 746 mmHg 68%
    22:00 +20°C° 0 mm 4 mps 746 mmHg 71%
    23:00 +19°C° 0 mm 4 mps 746 mmHg 69%

    20 July, Friday

    Time Temperature Precipitation Wind Pressure Humidity
    00:00 +19°C° 0 mm 4 mps 746 mmHg 67%
    01:00 +19°C° 0 mm 4 mps 746 mmHg 65%
    02:00 +19°C° 0 mm 4 mps 746 mmHg 63%
    03:00 +19°C° 0 mm 4 mps 746 mmHg 62%
    04:00 +19°C° 0 mm 4 mps 746 mmHg 60%
    05:00 +20°C° 0 mm 4 mps 746 mmHg 60%
    06:00 +21°C° 0 mm 4 mps 746 mmHg 61%
    07:00 +22°C° 0 mm 4 mps 746 mmHg 61%
    08:00 +23°C° 0 mm 4 mps 746 mmHg 60%
    09:00 +26°C° 0 mm 4 mps 746 mmHg 59%
    10:00 +28°C° 0 mm 4 mps 746 mmHg 58%
    11:00 +29°C° 0 mm 5 mps 746 mmHg 55%
    12:00 +32°C° 0 mm 5 mps 746 mmHg 52%
    13:00 +33°C° 0 mm 5 mps 745 mmHg 50%
    14:00 +33°C° 0 mm 5 mps 745 mmHg 51%
    15:00 +32°C° 0 mm 6 mps 745 mmHg 51%
    16:00 +32°C° 0 mm 6 mps 744 mmHg 52%
    17:00 +30°C° 0 mm 5 mps 744 mmHg 56%
    18:00 +28°C° 0 mm 5 mps 744 mmHg 60%
    19:00 +27°C° 0 mm 5 mps 744 mmHg 64%
    20:00 +26°C° 0.1 mm 5 mps 744 mmHg 64%
    21:00 +26°C° 0.1 mm 5 mps 744 mmHg 64%
    22:00 +24°C° 0.1 mm 6 mps 744 mmHg 65%
    23:00 +24°C° 0.1 mm 6 mps 744 mmHg 64%

    21 July, Saturday

    Time Temperature Precipitation Wind Pressure Humidity
    00:00 +24°C° 0.1 mm 6 mps 744 mmHg 64%
    01:00 +23°C° 0.1 mm 7 mps 743 mmHg 63%
    02:00 +23°C° 0 mm 7 mps 743 mmHg 64%
    03:00 +23°C° 0 mm 7 mps 743 mmHg 65%
    04:00 +23°C° 0 mm 7 mps 743 mmHg 65%
    05:00 +22°C° 0.1 mm 7 mps 743 mmHg 68%
    06:00 +22°C° 0.1 mm 7 mps 743 mmHg 71%
    07:00 +22°C° 0.1 mm 7 mps 743 mmHg 73%
    08:00 +24°C° 0 mm 7 mps 743 mmHg 69%
    09:00 +26°C° 0 mm 7 mps 743 mmHg 64%
    10:00 +28°C° 0 mm 7 mps 743 mmHg 60%
    11:00 +29°C° 0 mm 6 mps 742 mmHg 57%
    12:00 +30°C° 0 mm 6 mps 742 mmHg 55%
    13:00 +32°C° 0 mm 6 mps 742 mmHg 52%
    14:00 +32°C° 0.2 mm 6 mps 741 mmHg 53%
    15:00 +30°C° 0.2 mm 6 mps 741 mmHg 54%
    16:00 +30°C° 0.2 mm 6 mps 741 mmHg 56%
    17:00 +29°C° 0.1 mm 5 mps 741 mmHg 60%
    18:00 +28°C° 0.1 mm 4 mps 741 mmHg 65%
    19:00 +27°C° 0.1 mm 4 mps 741 mmHg 69%
    20:00 +26°C° 0.3 mm 4 mps 741 mmHg 73%
    21:00 +25°C° 0.3 mm 5 mps 740 mmHg 76%
    22:00 +23°C° 0.3 mm 5 mps 740 mmHg 79%
    23:00 +23°C° 0 mm 5 mps 740 mmHg 79%
    Show more